Location: France
(46.2276°N, 2.2137°E)
Time: 21:54:09
(UTC+02:00)

ISS - Pass Details

Date: 21 April 2026
Orbit: 414 x 424 km, 51.6° (Epoch: 12 May)

Event Time Altitude Azimuth Distance (km) Brightness Sun altitude
Exits shadow 04:42:26 14° 136° (SE) 1,262 -1.4 -20.3°
Maximum altitude 04:42:33 14° 134° (SE) 1,261 -1.3 -20.2°
Drops below altitude 10° 04:44:25 10° 100° (E) 1,498 -0.5 -20.0°
Sets 04:47:14 0° 74° (ENE) 2,370 1.1 -19.7°
